Overview Statistics Trail Chart Weather Telemetry Raw packets
 

This is the latest recevied weather packets stored in our database for station/object SQ5AAG-2. If no packets are shown the sender has not sent any weather packets the latest 10 day(s).

<< 1 2 3 4 >>
Time Temp. Humidity Pressure Rain* Wind** Luminosity Snow
1788611728 19.44° C 55% 997.5 hPa 0 mm - - -
1788611127 19.44° C 53% 997.5 hPa 0 mm - - -
1788609695 19.44° C 52% 997.4 hPa 0 mm - - -
1788609394 20° C 52% 997.4 hPa 0 mm - - -
1788609094 20° C 50% 997.4 hPa 0 mm - - -
1788608794 20.56° C 51% 997.5 hPa 0 mm - - -
1788608495 20° C 53% 997.5 hPa 0 mm - - -
1788608193 20° C 54% 997.2 hPa 0 mm - - -
1788607894 19.44° C 53% 997.2 hPa 0 mm - - -
1788607593 19.44° C 53% 997.3 hPa 0 mm - - -
1788606992 19.44° C 56% 997.2 hPa 0 mm - - -
1788606692 19.44° C 56% 997.1 hPa 0 mm - - -
1788606391 19.44° C 55% 997.3 hPa 0 mm - - -
1788606096 20° C 55% 997.3 hPa 0 mm - - -
1788605792 20° C 55% 997.2 hPa 0 mm - - -
1788605491 20° C 56% 997 hPa 0 mm - - -
1788605190 20° C 56% 996.9 hPa 0 mm - - -
1788604890 19.44° C 56% 996.9 hPa 0 mm - - -
1788604590 19.44° C 56% 996.8 hPa 0 mm - - -
1788604289 20° C 56% 996.8 hPa 0 mm - - -
1788603989 20° C 58% 996.7 hPa 0 mm - - -
1788603689 20° C 57% 996.8 hPa 0 mm - - -
1788603389 19.44° C 57% 996.8 hPa 0 mm - - -
1788603089 19.44° C 57% 996.6 hPa 0 mm - - -
1788602788 19.44° C 57% 996.9 hPa 0 mm - - -

* Rain latest hour (hover to see other rain measurements)
** Current wind speed in m/s (hover to see current wind gust speed)